TimeWET,TemperatureF,Dew PointF,Humidity,Sea Level PressureIn,VisibilityMPH,Wind Direction,Wind SpeedMPH,Gust SpeedMPH,PrecipitationIn,Events,Conditions,WindDirDegrees,DateUTC
12:00 AM,65,44,34,,12,SW,5.8,,,,Partly Cloudy,220,2012-10-26 00:00:00
12:00 AM,64.4,42.8,45,29.92,-9999.0,SW,6.9,-,N/A,,Clear,220,2012-10-26 00:00:00
1:00 AM,62.6,42.8,48,29.92,-9999.0,WSW,6.9,-,N/A,,Clear,240,2012-10-26 01:00:00
2:00 AM,62.6,42.8,48,29.92,-9999.0,WSW,10.4,-,N/A,,Clear,250,2012-10-26 02:00:00
3:00 AM,63,44,38,,12,WSW,13.8,,,,Partly Cloudy,250,2012-10-26 03:00:00
3:00 AM,62.6,44.6,52,29.92,-9999.0,WSW,13.8,-,N/A,,Clear,250,2012-10-26 03:00:00
4:00 AM,62.6,42.8,48,29.89,-9999.0,WSW,15.0,-,N/A,,Clear,240,2012-10-26 04:00:00
5:00 AM,62.6,42.8,48,29.89,-9999.0,WSW,10.4,-,N/A,,Clear,240,2012-10-26 05:00:00
6:00 AM,63,42,35,,12,WSW,11.5,,,,Partly Cloudy,240,2012-10-26 06:00:00
6:00 AM,62.6,42.8,48,29.89,-9999.0,WSW,11.5,-,N/A,,Clear,240,2012-10-26 06:00:00
7:00 AM,62.6,42.8,48,29.89,-9999.0,WSW,6.9,-,N/A,,Clear,240,2012-10-26 07:00:00
8:00 AM,62.6,42.8,48,29.89,-9999.0,SW,8.1,-,N/A,,Clear,230,2012-10-26 08:00:00
9:00 AM,65,43,33,,12,SW,10.4,,,,Scattered Clouds,220,2012-10-26 09:00:00
9:00 AM,64.4,42.8,45,29.92,-9999.0,SW,10.4,-,N/A,,Clear,220,2012-10-26 09:00:00
10:00 AM,69.8,41.0,35,29.92,6.2,WSW,9.2,-,N/A,,Partly Cloudy,240,2012-10-26 10:00:00
11:00 AM,71.6,39.2,31,29.92,6.2,SSW,5.8,-,N/A,,Partly Cloudy,210,2012-10-26 11:00:00
12:00 PM,74,40,18,,12,SSW,8.1,,,,Scattered Clouds,210,2012-10-26 12:00:00
12:00 PM,73.4,39.2,29,29.89,6.2,SSW,8.1,-,N/A,,Scattered Clouds,210,2012-10-26 12:00:00
1:00 PM,75.2,35.6,24,29.86,6.2,SSW,3.5,-,N/A,,Scattered Clouds,200,2012-10-26 13:00:00
2:00 PM,77.0,33.8,21,29.83,6.2,Variable,3.5,-,N/A,,Scattered Clouds,0,2012-10-26 14:00:00
3:00 PM,78,33,11,,12,NW,10.4,,,,Scattered Clouds,310,2012-10-26 15:00:00
3:00 PM,78.8,33.8,20,29.83,6.2,NW,10.4,-,N/A,,Scattered Clouds,310,2012-10-26 15:00:00
4:00 PM,77.0,37.4,24,29.83,6.2,NW,16.1,-,N/A,,Partly Cloudy,310,2012-10-26 16:00:00
5:00 PM,73.4,37.4,27,29.83,6.2,NW,18.4,-,N/A,,Partly Cloudy,310,2012-10-26 17:00:00
6:00 PM,71,39,20,,12,NW,21.9,,,,Scattered Clouds,310,2012-10-26 18:00:00
6:00 PM,71.6,39.2,31,29.86,6.2,NW,21.9,-,N/A,,Partly Cloudy,310,2012-10-26 18:00:00
7:00 PM,69.8,41.0,35,29.86,6.2,NW,9.2,-,N/A,,Unknown,320,2012-10-26 19:00:00
8:00 PM,68.0,42.8,40,29.89,6.2,WNW,9.2,-,N/A,,Partly Cloudy,300,2012-10-26 20:00:00
9:00 PM,66,44,33,,12,WNW,11.5,,,,Scattered Clouds,290,2012-10-26 21:00:00
9:00 PM,66.2,42.8,43,29.89,6.2,WNW,11.5,-,N/A,,Partly Cloudy,290,2012-10-26 21:00:00
10:00 PM,66.2,42.8,43,29.89,6.2,West,8.1,-,N/A,,Partly Cloudy,280,2012-10-26 22:00:00
11:00 PM,64.4,41.0,42,29.89,6.2,West,6.9,-,N/A,,Partly Cloudy,280,2012-10-26 23:00:00